This demonstration page uses our WeatherBlox Daily Observations layout. Learn more.

Hourly Observations for October 16, 2018

Temp ( °F °C ) Dew Point ( °F °C ) Humidity (%) Winds ( mph kmh ) Pressure ( in mb ) Visibility ( mi km ) Precip ( " mm )
12:15 am 00:15 Clear 33 0.5 25 -4.1 72 72 SW 6 9 30.36 1028 10 16.09344 0 0
12:35 am 00:35 Clear 32 0.2 23 -4.9 69 69 W 5 7 30.36 1028 10 16.09344 0 0
12:55 am 00:55 Clear 32 -0.1 23 -4.8 71 71 W 6 9 30.33 1027 10 16.09344 0 0
1:15 am 01:15 Clear 31 -0.4 24 -4.7 73 73 WSW 5 7 30.33 1027 10 16.09344 0 0
1:35 am 01:35 Clear 33 0.6 24 -4.7 68 68 W 7 11 30.33 1027 10 16.09344 0 0
1:55 am 01:55 Clear 35 1.5 24 -4.7 64 64 W 8 13 30.33 1027 10 16.09344 0 0
2:15 am 02:15 Clear 35 1.6 23 -5 62 62 W 9 15 30.3 1026 10 16.09344 0 0
2:35 am 02:35 Clear 35 1.8 23 -4.9 61 61 W 9 15 30.3 1026 10 16.09344 0 0
2:55 am 02:55 Clear 35 1.6 23 -4.8 63 63 W 7 11 30.3 1026 10 16.09344 0 0
3:15 am 03:15 Clear 34 1.3 24 -4.6 65 65 W 9 15 30.33 1027 10 16.09344 0 0
3:35 am 03:35 Clear 33 0.6 24 -4.5 69 69 W 10 17 30.33 1027 10 16.09344 0 0
3:55 am 03:55 Clear 33 0.5 24 -4.2 71 71 W 9 15 30.33 1027 10 16.09344 0 0
4:15 am 04:15 Clear 33 0.4 25 -4.1 72 72 W 9 15 30.33 1027 10 16.09344 0 0
4:35 am 04:35 Clear 32 0.2 25 -4 74 74 W 9 15 30.33 1027 10 16.09344 0 0
4:55 am 04:55 Clear 33 0.3 25 -3.8 74 74 W 9 15 30.33 1027 10 16.09344 0 0
5:15 am 05:15 Clear 33 0.3 26 -3.6 75 75 W 9 15 30.33 1027 10 16.09344 0 0
5:35 am 05:35 Clear 33 0.5 26 -3.6 74 74 W 8 13 30.33 1027 10 16.09344 0 0
5:55 am 05:55 Clear 32 0.1 26 -3.5 77 77 W 9 15 30.33 1027 10 16.09344 0 0
6:15 am 06:15 Clear 32 0 26 -3.5 78 78 W 9 15 30.33 1027 10 16.09344 0 0
6:35 am 06:35 Clear 32 0 26 -3.2 79 79 W 8 13 30.33 1027 10 16.09344 0 0
6:55 am 06:55 Clear 32 0 26 -3.1 80 80 W 8 13 30.33 1027 10 16.09344 0 0
7:15 am 07:15 Clear 32 0 27 -2.8 82 82 W 8 13 30.33 1027 10 16.09344 0 0
7:35 am 07:35 Clear 31 -0.5 27 -3 83 83 W 7 11 30.33 1027 10 16.09344 0 0
7:55 am 07:55 Sunny 32 0 27 -2.6 83 83 W 8 13 30.33 1027 10 16.09344 0 0
8:15 am 08:15 Sunny 32 0 28 -2.5 83 83 W 8 13 30.33 1027 10 16.09344 0 0
8:35 am 08:35 Sunny 33 0.7 28 -2 82 82 W 7 11 30.33 1027 10 16.09344 0 0
8:55 am 08:55 Sunny 35 1.7 29 -1.5 80 80 W 6 9 30.36 1028 10 16.09344 0 0
9:15 am 09:15 Sunny 37 3 31 -0.8 76 76 W 7 11 30.33 1027 10 16.09344 0 0
9:35 am 09:35 Sunny 40 4.5 32 0 73 73 WNW 6 9 30.33 1027 10 16.09344 0 0
9:55 am 09:55 Sunny 43 6.1 33 0.4 67 67 WNW 6 9 30.3 1026 10 16.09344 0 0
10:15 am 10:15 Sunny 46 7.8 34 1.1 63 63 W 7 11 30.3 1026 10 16.09344 0 0
10:35 am 10:35 Sunny 49 9.5 35 1.7 59 59 WNW 6 9 30.27 1025 10 16.09344 0 0
10:55 am 10:55 Sunny 53 11.6 35 1.7 51 51 NW 6 9 30.24 1024 10 16.09344 0 0
11:15 am 11:15 Sunny 55 12.5 35 1.7 48 48 NNW 6 9 30.24 1024 10 16.09344 0 0
11:35 am 11:35 Sunny 56 13.5 36 2.3 47 47 NNW 6 9 30.24 1024 10 16.09344 0 0
11:55 am 11:55 Sunny 58 14.3 36 2.4 45 45 NNW 8 13 30.24 1024 10 16.09344 0 0
12:15 pm 12:15 Sunny 59 15.1 36 2.3 42 42 NW 5 7 30.21 1023 10 16.09344 0 0
12:35 pm 12:35 Sunny 61 16 37 2.5 41 41 NNW 7 11 30.21 1023 10 16.09344 0 0
12:55 pm 12:55 Sunny 62 16.9 37 2.6 39 39 WNW 9 15 30.21 1023 10 16.09344 0 0
1:15 pm 13:15 Sunny 64 17.5 36 2.4 37 37 W 6 9 30.21 1023 10 16.09344 0 0
1:35 pm 13:35 Sunny 64 17.5 37 2.5 37 37 W 9 15 30.21 1023 10 16.09344 0 0
1:55 pm 13:55 Sunny 64 18 37 2.7 36 36 NW 9 15 30.18 1022 10 16.09344 0 0
2:15 pm 14:15 Sunny 65 18.3 37 3 36 36 WNW 13 20 30.15 1021 10 16.09344 0 0
2:35 pm 14:35 Sunny 65 18.5 37 2.6 35 35 WNW 14 22 30.15 1021 10 16.09344 0 0
2:55 pm 14:55 Sunny 65 18.5 37 2.5 35 35 WNW 10 17 30.12 1020 10 16.09344 0 0
3:15 pm 15:15 Sunny 66 18.9 37 2.7 34 34 WNW 14 22 30.12 1020 10 16.09344 0 0
3:35 pm 15:35 Sunny 66 19.1 37 2.8 34 34 NW 12 19 30.12 1020 10 16.09344 0 0
3:55 pm 15:55 Sunny 67 19.2 37 3 34 34 NW 12 19 30.12 1020 10 16.09344 0 0
4:15 pm 16:15 Sunny 67 19.2 37 3 34 34 NW 8 13 30.12 1020 10 16.09344 0 0
4:35 pm 16:35 Sunny 67 19.2 37 3 34 34 NW 10 17 30.12 1020 10 16.09344 0 0
4:55 pm 16:55 Sunny 67 19.3 38 3.1 34 34 NW 8 13 30.12 1020 10 16.09344 0 0
5:15 pm 17:15 Sunny 67 19.2 38 3.1 35 35 WNW 9 15 30.12 1020 10 16.09344 0 0
5:35 pm 17:35 Sunny 67 19.3 38 3.1 34 34 NW 8 13 30.12 1020 10 16.09344 0 0
5:55 pm 17:55 Sunny 66 19.1 37 2.7 34 34 NNW 13 20 30.12 1020 10 16.09344 0 0
6:15 pm 18:15 Sunny 65 18.2 37 2.5 35 35 N 8 13 30.12 1020 10 16.09344 0 0
6:35 pm 18:35 Sunny 63 17.2 37 2.6 38 38 NNW 7 11 30.15 1021 10 16.09344 0 0
6:55 pm 18:55 Sunny 60 15.6 37 2.9 43 43 N 6 9 30.18 1022 10 16.09344 0 0
7:15 pm 19:15 Clear 58 14.5 37 3 46 46 N 7 11 30.21 1023 10 16.09344 0 0
7:35 pm 19:35 Clear 55 12.7 37 3 52 52 N 5 7 30.21 1023 10 16.09344 0 0
7:55 pm 19:55 Clear 51 10.6 37 3 60 60 NNW 3 6 30.27 1025 7 11.265408 0 0
8:15 pm 20:15 Clear 52 11.2 38 3.1 58 58 NNW 6 9 30.27 1025 10 16.09344 0 0
8:35 pm 20:35 Clear 51 10.7 37 3 59 59 Calm 30.27 1025 10 16.09344 0 0
8:55 pm 20:55 Clear 49 9.2 37 2.8 65 65 NNW 3 6 30.3 1026 10 16.09344 0 0
9:15 pm 21:15 Clear 46 8 37 2.5 69 69 Calm 30.33 1027 10 16.09344 0 0
9:35 pm 21:35 Clear 46 8 37 2.6 69 69 NW 3 6 30.33 1027 10 16.09344 0 0
9:55 pm 21:55 Clear 46 7.6 37 2.6 71 71 NW 5 7 30.33 1027 10 16.09344 0 0
10:15 pm 22:15 Clear 44 6.8 36 2.1 72 72 NNW 3 6 30.36 1028 10 16.09344 0 0
10:35 pm 22:35 Clear 42 5.7 36 2 77 77 WNW 3 6 30.36 1028 10 16.09344 0 0
10:55 pm 22:55 Clear 41 5.1 35 1.9 80 80 NW 3 6 30.39 1029 10 16.09344 0 0
11:35 pm 23:35 Clear 42 5.3 36 2 80 80 NW 5 7 30.39 1029 10 16.09344 0 0

Powered by AerisWeather